User: anonymous   Login
Location: Vallejo Observatory
(38.1221°N, 122.2109°W)
Time: 03:13:00
(UTC-07:00)
Language:

MOS 1 Rocket - Orbit

View from above orbital plane
View from above orbital plane
View from above satellite
View from above satellite

Ground track
Ground track

The orbit data is extracted from the following two-line orbital elements,

1 17528U 87018B   14297.74518192  .00000796  00000-0  18492-3 0  5105
2 17528 097.4493 352.3440 0155088 087.4670 055.5531 14.50108633459778
Epoch (UTC): 24 October 2014 17:53:03
Eccentricity: 0.0155088
inclination: 97.4493°
perigee height: 615 km
apogee height: 835 km
right ascension of ascending node: 352.3440°
argument of perigee: 87.4670°
revolutions per day: 14.50108633
mean anomaly at epoch: 55.5531°
orbit number at epoch: 45977

The dashed part of the orbit path shows where the satellite is in the earth's shadow,  

DLR